This is the latest recevied weather packets stored in our database for station/object HB9EYZ-1. If no packets are shown the sender has not sent any weather packets the latest 1 day(s).
| Time | Temp. | Humidity | Pressure | Rain* | Wind** | Luminosity | Snow |
|---|---|---|---|---|---|---|---|
| 1777999917 | 16.11° C | 32% | 1003.8 hPa | 1.02 mm | 0 m/s | - | - |
| 1777999598 | 16.11° C | 31% | 1004 hPa | 1.02 mm | 0 m/s | - | - |
| 1777999282 | 16.67° C | 32% | 1004 hPa | 1.02 mm | 0 m/s | - | - |
| 1777998965 | 16.67° C | 33% | 1003.9 hPa | 1.02 mm | 0 m/s | - | - |
| 1777998648 | 16.67° C | 32% | 1004.1 hPa | 1.02 mm | 0 m/s | - | - |
| 1777998331 | 16.67° C | 28% | 1004.1 hPa | 1.02 mm | 0 m/s | - | - |
| 1777998015 | 16.67° C | 28% | 1004.1 hPa | 1.02 mm | 0 m/s | - | - |
| 1777997396 | 16.11° C | 31% | 1004.3 hPa | 1.02 mm | 0 m/s | - | - |
| 1777997079 | 16.11° C | 33% | 1004.4 hPa | 1.02 mm | 0 m/s | - | - |
| 1777996762 | 16.11° C | 34% | 1004.3 hPa | 1.02 mm | 0 m/s | - | - |
| 1777996446 | 15.56° C | 35% | 1004.2 hPa | 1.02 mm | 0 m/s | - | - |
| 1777996129 | 15.56° C | 36% | 1004.1 hPa | 1.02 mm | 0 m/s | - | - |
| 1777995812 | 15.56° C | 36% | 1004.3 hPa | 1.02 mm | 0 m/s | - | - |
| 1777995495 | 15.56° C | 37% | 1004.1 hPa | 1.02 mm | 0 m/s | - | - |
| 1777995178 | 16.11° C | 39% | 1004.4 hPa | 1.02 mm | 0 m/s | - | - |
| 1777994859 | 16.11° C | 38% | 1004.3 hPa | 1.02 mm | 0 m/s | - | - |
| 1777994542 | 16.11° C | 36% | 1004.3 hPa | 1.02 mm | 0 m/s | - | - |
| 1777994225 | 16.11° C | 31% | 1004.3 hPa | 0.76 mm | 0 m/s | - | - |
| 1777993909 | 16.11° C | 31% | 1004.5 hPa | 0.76 mm | 0 m/s | - | - |
| 1777993592 | 16.67° C | 32% | 1004.2 hPa | 0.76 mm | 0 m/s | - | - |
| 1777993275 | 16.67° C | 31% | 1004.2 hPa | 0.76 mm | 0 m/s | - | - |
| 1777992958 | 17.22° C | 31% | 1004.1 hPa | 0.76 mm | 0 m/s | - | - |
| 1777992641 | 17.78° C | 30% | 1004 hPa | 0.76 mm | 0 m/s | - | - |
| 1777992324 | 17.78° C | 29% | 1004.1 hPa | 0.76 mm | 0 m/s | - | - |
| 1777992006 | 18.33° C | 28% | 1004.2 hPa | 0.76 mm | 0 m/s | - | - |
* Rain latest hour (hover to see other rain measurements)
** Current wind speed in m/s (hover to see current wind gust speed)